| time (UTC) | temp F | wind direction | speed MPH | gust MPH | rain 1hr in | rain 24hr in | rain mn in | humidity % | barometer mb |
| 20260510081841 | 51 | 38 | 2.0 | 4.0 | 0.00 | 0.60 | 0.00 | 99 | 1012.7 |
| 20260510081629 | 51 | 19 | 1.0 | 3.0 | 0.00 | 0.60 | 0.00 | 99 | 1012.8 |
| 20260510081546 | 51 | 355 | 0.0 | 4.0 | 0.00 | 0.60 | 0.00 | 98 | 1012.2 |
| 20260510081412 | 52 | 239 | 0.0 | 4.0 | 0.00 | 0.60 | 0.00 | 99 | 1012.7 |
| 20260510080839 | 51 | 315 | 1.0 | 4.0 | 0.00 | 0.60 | 0.00 | 99 | 1012.8 |
| 20260510080413 | 52 | 302 | 1.0 | 4.0 | 0.00 | 0.60 | 0.00 | 99 | 1012.4 |
| 20260510080119 | 51 | 227 | 1.0 | 4.0 | 0.00 | 0.60 | 0.00 | 99 | 1012.5 |
| 20260510080042 | 51 | 290 | 3.0 | 4.0 | 0.00 | 0.60 | 0.00 | 98 | 1012.1 |
| 20260510075840 | 51 | 315 | 3.0 | 4.0 | 0.00 | 0.61 | 0.00 | 99 | 1012.5 |
| 20260510075411 | 51 | 299 | 0.0 | 0.0 | 0.00 | 0.61 | 0.00 | 99 | 1011.8 |
| 20260510074900 | 51 | 299 | 0.0 | 1.0 | 0.00 | 0.61 | 0.00 | 99 | 1011.7 |
| 20260510074607 | 51 | 299 | 0.0 | 1.0 | 0.00 | 0.61 | 0.00 | 99 | 1011.6 |
| 20260510074540 | 51 | 0 | 0.0 | 1.0 | 0.00 | 0.61 | 0.00 | 98 | 1011.0 |
| 20260510074350 | 52 | 299 | 0.0 | 1.0 | 0.00 | 0.61 | 0.00 | 99 | 1011.7 |
| 20260510073900 | 52 | 299 | 0.0 | 0.0 | 0.00 | 0.61 | 0.00 | 99 | 1011.8 |
| 20260510073350 | 52 | 299 | 0.0 | 1.0 | 0.00 | 0.61 | 0.00 | 99 | 1011.7 |
| 20260510073115 | 51 | 299 | 0.0 | 1.0 | 0.00 | 0.61 | 0.00 | 99 | 1011.7 |
| 20260510073041 | 51 | 0 | 0.0 | 1.0 | 0.00 | 0.61 | 0.00 | 98 | 1011.1 |
| 20260510072838 | 52 | 299 | 0.0 | 1.0 | 0.00 | 0.61 | 0.00 | 99 | 1011.7 |
| 20260510072409 | 52 | 299 | 0.0 | 2.0 | 0.00 | 0.61 | 0.00 | 99 | 1011.8 |
| 20260510071858 | 52 | 299 | 0.0 | 2.0 | 0.00 | 0.61 | 0.00 | 99 | 1012.0 |
| 20260510071606 | 51 | 299 | 0.0 | 2.0 | 0.00 | 0.61 | 0.00 | 99 | 1012.0 |
| 20260510071548 | 51 | 0 | 0.0 | 2.0 | 0.00 | 0.61 | 0.00 | 98 | 1011.4 |
| 20260510071409 | 52 | 299 | 0.0 | 2.0 | 0.00 | 0.61 | 0.00 | 99 | 1012.0 |
| 20260510070859 | 52 | 292 | 1.0 | 3.0 | 0.00 | 0.61 | 0.00 | 99 | 1012.0 |
| 20260510070349 | 52 | 290 | 1.0 | 3.0 | 0.00 | 0.61 | 0.00 | 99 | 1012.0 |
| 20260510070109 | 51 | 297 | 1.0 | 3.0 | 0.00 | 0.61 | 0.00 | 99 | 1011.9 |
| 20260510070044 | 51 | 300 | 1.0 | 3.0 | 0.00 | 0.61 | 0.00 | 98 | 1011.2 |
| 20260510065856 | 52 | 290 | 2.0 | 3.0 | 0.00 | 0.61 | 0.00 | 99 | 1011.8 |
| 20260510065343 | 52 | 304 | 1.0 | 2.0 | 0.00 | 0.61 | 0.00 | 99 | 1011.9 |
| 20260510064853 | 52 | 329 | 1.0 | 1.0 | 0.00 | 0.61 | 0.00 | 99 | 1011.9 |
| 20260510064601 | 51 | 329 | 0.0 | 1.0 | 0.00 | 0.61 | 0.00 | 99 | 1011.9 |
| 20260510064544 | 52 | 0 | 0.0 | 2.0 | 0.00 | 0.61 | 0.00 | 98 | 1011.3 |
| 20260510064405 | 52 | 329 | 0.0 | 2.0 | 0.00 | 0.61 | 0.00 | 99 | 1012.0 |
| 20260510063855 | 52 | 329 | 0.0 | 2.0 | 0.00 | 0.61 | 0.00 | 99 | 1012.0 |
| 20260510063345 | 52 | 267 | 0.0 | 1.0 | 0.00 | 0.61 | 0.00 | 99 | 1012.0 |
| 20260510063112 | 52 | 267 | 0.0 | 1.0 | 0.00 | 0.61 | 0.00 | 99 | 1012.0 |
| 20260510063045 | 52 | 0 | 0.0 | 1.0 | 0.00 | 0.61 | 0.00 | 98 | 1011.3 |
| 20260510062853 | 52 | 267 | 0.0 | 1.0 | 0.00 | 0.61 | 0.00 | 99 | 1012.0 |
| 20260510062343 | 52 | 267 | 0.0 | 1.0 | 0.00 | 0.61 | 0.00 | 99 | 1012.1 |
| 20260510061855 | 52 | 263 | 0.0 | 2.0 | 0.00 | 0.61 | 0.00 | 99 | 1012.0 |
| 20260510061603 | 52 | 263 | 0.0 | 2.0 | 0.00 | 0.61 | 0.00 | 99 | 1012.0 |
| 20260510061547 | 52 | 249 | 0.0 | 2.0 | 0.00 | 0.61 | 0.00 | 98 | 1011.3 |
| 20260510061345 | 52 | 181 | 0.0 | 1.0 | 0.00 | 0.61 | 0.00 | 99 | 1011.9 |
| 20260510060855 | 52 | 173 | 0.0 | 1.0 | 0.00 | 0.61 | 0.00 | 99 | 1011.8 |
| 20260510060346 | 52 | 173 | 0.0 | 1.0 | 0.00 | 0.61 | 0.00 | 99 | 1011.7 |
| 20260510060111 | 52 | 173 | 0.0 | 1.0 | 0.00 | 0.61 | 0.00 | 99 | 1011.7 |
| 20260510060039 | 52 | 173 | 0.0 | 1.0 | 0.00 | 0.61 | 0.00 | 98 | 1011.1 |
| 20260510055852 | 52 | 173 | 0.0 | 1.0 | 0.00 | 0.61 | 0.00 | 99 | 1011.7 |
| 20260510055343 | 52 | 173 | 0.0 | 1.0 | 0.00 | 0.61 | 0.00 | 99 | 1011.7 |
| 20260510054854 | 52 | 173 | 0.0 | 1.0 | 0.00 | 0.61 | 0.00 | 98 | 1011.7 |
| 20260510054603 | 52 | 173 | 0.0 | 1.0 | 0.00 | 0.61 | 0.00 | 98 | 1011.7 |
| 20260510054542 | 52 | 0 | 0.0 | 2.0 | 0.00 | 0.61 | 0.00 | 98 | 1011.1 |
| 20260510054345 | 52 | 173 | 0.0 | 2.0 | 0.00 | 0.61 | 0.00 | 98 | 1011.7 |
| 20260510053917 | 52 | 173 | 0.0 | 2.0 | 0.00 | 0.61 | 0.00 | 98 | 1011.8 |
| 20260510053407 | 52 | 173 | 0.0 | 1.0 | 0.00 | 0.61 | 0.00 | 98 | 1011.7 |
| 20260510053122 | 52 | 173 | 0.0 | 0.0 | 0.00 | 0.61 | 0.00 | 98 | 1011.7 |
| 20260510053043 | 52 | 0 | 0.0 | 1.0 | 0.00 | 0.61 | 0.00 | 98 | 1011.2 |
| 20260510052852 | 52 | 173 | 0.0 | 0.0 | 0.00 | 0.61 | 0.00 | 98 | 1011.7 |
| 20260510052343 | 52 | 173 | 0.0 | 1.0 | 0.00 | 0.61 | 0.00 | 98 | 1011.6 |
| 20260510051853 | 52 | 173 | 0.0 | 2.0 | 0.00 | 0.61 | 0.00 | 98 | 1011.8 |
| 20260510051703 | 52 | 173 | 0.0 | 2.0 | 0.00 | 0.61 | 0.00 | 98 | 1011.8 |
| 20260510051544 | 52 | 0 | 0.0 | 2.0 | 0.00 | 0.61 | 0.00 | 98 | 1011.2 |
| 20260510051344 | 53 | 173 | 0.0 | 2.0 | 0.00 | 0.61 | 0.00 | 98 | 1011.8 |
| 20260510050854 | 53 | 231 | 0.0 | 1.0 | 0.00 | 0.61 | 0.00 | 98 | 1011.9 |
| 20260510050405 | 53 | 325 | 0.0 | 2.0 | 0.00 | 0.61 | 0.00 | 98 | 1011.9 |
| 20260510050109 | 52 | 325 | 0.0 | 2.0 | 0.00 | 0.61 | 0.00 | 98 | 1011.9 |
| 20260510050044 | 52 | 0 | 0.0 | 2.0 | 0.00 | 0.61 | 0.00 | 98 | 1011.3 |
| 20260510045852 | 53 | 325 | 0.0 | 2.0 | 0.00 | 0.61 | 0.00 | 98 | 1012.0 |
| 20260510045343 | 53 | 30 | 0.0 | 1.0 | 0.00 | 0.61 | 0.00 | 98 | 1011.9 |
| 20260510044838 | 53 | 30 | 0.0 | 1.0 | 0.00 | 0.61 | 0.00 | 98 | 1011.8 |
| 20260510044623 | 52 | 30 | 0.0 | 1.0 | 0.00 | 0.61 | 0.00 | 98 | 1011.8 |
| 20260510044545 | 52 | 0 | 0.0 | 1.0 | 0.00 | 0.61 | 0.00 | 98 | 1011.1 |
| 20260510044349 | 53 | 30 | 0.0 | 1.0 | 0.00 | 0.61 | 0.00 | 98 | 1011.8 |
| 20260510043838 | 53 | 349 | 0.0 | 1.0 | 0.00 | 0.61 | 0.00 | 98 | 1011.8 |
| 20260510043350 | 53 | 349 | 0.0 | 1.0 | 0.00 | 0.61 | 0.00 | 98 | 1011.8 |
| 20260510043145 | 52 | 349 | 0.0 | 1.0 | 0.00 | 0.61 | 0.00 | 98 | 1011.8 |
| 20260510043039 | 52 | 0 | 0.0 | 1.0 | 0.00 | 0.61 | 0.00 | 98 | 1011.2 |
| 20260510042857 | 53 | 349 | 0.0 | 1.0 | 0.00 | 0.61 | 0.00 | 98 | 1011.8 |
| 20260510042346 | 53 | 349 | 0.0 | 1.0 | 0.00 | 0.61 | 0.00 | 98 | 1011.8 |
| 20260510041838 | 53 | 349 | 0.0 | 1.0 | 0.00 | 0.61 | 0.00 | 98 | 1011.8 |
| 20260510041621 | 52 | 349 | 0.0 | 1.0 | 0.00 | 0.61 | 0.00 | 98 | 1011.8 |
| 20260510041538 | 52 | 0 | 0.0 | 1.0 | 0.00 | 0.61 | 0.00 | 98 | 1011.2 |
| 20260510041348 | 53 | 349 | 0.0 | 1.0 | 0.00 | 0.61 | 0.00 | 98 | 1011.9 |
| 20260510040839 | 53 | 349 | 1.0 | 1.0 | 0.00 | 0.61 | 0.00 | 98 | 1011.8 |
| 20260510040351 | 53 | 349 | 0.0 | 0.0 | 0.00 | 0.61 | 0.00 | 98 | 1011.7 |
| 20260510040116 | 52 | 349 | 0.0 | 0.0 | 0.00 | 0.61 | 0.00 | 98 | 1011.6 |
| 20260510040047 | 52 | 0 | 0.0 | 0.0 | 0.00 | 0.61 | 0.00 | 98 | 1011.0 |
| 20260510035838 | 53 | 349 | 0.0 | 0.0 | 0.00 | 0.61 | 0.61 | 98 | 1011.6 |
| 20260510035411 | 53 | 349 | 0.0 | 0.0 | 0.00 | 0.61 | 0.61 | 98 | 1011.7 |
| 20260510034840 | 53 | 349 | 0.0 | 1.0 | 0.00 | 0.61 | 0.61 | 98 | 1011.6 |
| 20260510034608 | 53 | 349 | 0.0 | 1.0 | 0.00 | 0.61 | 0.61 | 98 | 1011.5 |
| 20260510034540 | 52 | 0 | 0.0 | 1.0 | 0.00 | 0.61 | 0.61 | 98 | 1010.9 |
| 20260510034351 | 53 | 349 | 0.0 | 1.0 | 0.00 | 0.61 | 0.61 | 98 | 1011.5 |
| 20260510033842 | 53 | 349 | 0.0 | 2.0 | 0.00 | 0.61 | 0.61 | 98 | 1011.4 |
| 20260510033352 | 53 | 349 | 0.0 | 2.0 | 0.00 | 0.61 | 0.61 | 98 | 1011.3 |
| 20260510033117 | 53 | 19 | 0.0 | 2.0 | 0.00 | 0.61 | 0.61 | 98 | 1011.3 |
| 20260510033057 | 53 | 0 | 0.0 | 2.0 | 0.00 | 0.61 | 0.61 | 98 | 1010.7 |
| 20260510032838 | 53 | 42 | 0.0 | 2.0 | 0.00 | 0.61 | 0.61 | 98 | 1011.3 |
| 20260510032410 | 53 | 75 | 0.0 | 2.0 | 0.00 | 0.61 | 0.61 | 98 | 1011.4 |
| 20260510031839 | 53 | 142 | 0.0 | 0.0 | 0.00 | 0.61 | 0.61 | 98 | 1011.4 |
| 20260510031629 | 53 | 142 | 0.0 | 1.0 | 0.00 | 0.61 | 0.61 | 98 | 1011.4 |
| 20260510031546 | 53 | 0 | 0.0 | 1.0 | 0.00 | 0.61 | 0.61 | 98 | 1010.8 |
| 20260510031412 | 53 | 142 | 0.0 | 1.0 | 0.00 | 0.61 | 0.61 | 98 | 1011.4 |
| 20260510030844 | 53 | 142 | 0.0 | 1.0 | 0.00 | 0.61 | 0.61 | 98 | 1011.4 |
| 20260510030354 | 53 | 142 | 0.0 | 1.0 | 0.00 | 0.61 | 0.61 | 98 | 1011.4 |
| 20260510030120 | 53 | 142 | 0.0 | 1.0 | 0.00 | 0.61 | 0.61 | 98 | 1011.5 |
| 20260510030038 | 53 | 0 | 0.0 | 2.0 | 0.00 | 0.61 | 0.61 | 98 | 1010.8 |
| 20260510025840 | 53 | 142 | 0.0 | 2.0 | 0.00 | 0.61 | 0.61 | 98 | 1011.6 |
| 20260510025351 | 53 | 142 | 1.0 | 2.0 | 0.00 | 0.61 | 0.61 | 98 | 1011.6 |
| 20260510024841 | 53 | 161 | 0.0 | 1.0 | 0.00 | 0.61 | 0.61 | 98 | 1011.8 |
| 20260510024608 | 53 | 161 | 0.0 | 0.0 | 0.00 | 0.61 | 0.61 | 98 | 1011.8 |
| 20260510024544 | 53 | 0 | 0.0 | 0.0 | 0.00 | 0.61 | 0.61 | 98 | 1011.1 |
| 20260510024351 | 54 | 161 | 0.0 | 0.0 | 0.00 | 0.61 | 0.61 | 98 | 1011.8 |
| 20260510023902 | 54 | 161 | 0.0 | 0.0 | 0.00 | 0.61 | 0.61 | 98 | 1011.7 |
| 20260510023354 | 54 | 161 | 0.0 | 0.0 | 0.00 | 0.61 | 0.61 | 98 | 1011.5 |
| 20260510023118 | 53 | 161 | 0.0 | 0.0 | 0.00 | 0.61 | 0.61 | 98 | 1011.6 |
| 20260510023037 | 53 | 0 | 0.0 | 0.0 | 0.00 | 0.61 | 0.61 | 98 | 1010.9 |
| 20260510022840 | 54 | 161 | 0.0 | 0.0 | 0.00 | 0.61 | 0.61 | 98 | 1011.7 |
| 20260510022349 | 54 | 161 | 0.0 | 0.0 | 0.00 | 0.61 | 0.61 | 98 | 1011.7 |
| 20260510021838 | 54 | 161 | 0.0 | 0.0 | 0.00 | 0.61 | 0.61 | 98 | 1011.6 |
| 20260510021606 | 53 | 161 | 0.0 | 0.0 | 0.00 | 0.61 | 0.61 | 98 | 1011.7 |
| 20260510021543 | 53 | 0 | 0.0 | 0.0 | 0.00 | 0.61 | 0.61 | 98 | 1011.0 |
| 20260510021350 | 54 | 161 | 0.0 | 0.0 | 0.00 | 0.61 | 0.61 | 98 | 1011.7 |
| 20260510020857 | 54 | 161 | 0.0 | 1.0 | 0.00 | 0.61 | 0.61 | 98 | 1011.7 |
| 20260510020410 | 54 | 161 | 0.0 | 1.0 | 0.00 | 0.61 | 0.61 | 98 | 1011.8 |
| 20260510020114 | 53 | 161 | 0.0 | 2.0 | 0.00 | 0.61 | 0.61 | 98 | 1011.7 |
| 20260510020042 | 53 | 0 | 0.0 | 2.0 | 0.00 | 0.61 | 0.61 | 97 | 1011.0 |
| 20260510015916 | 54 | 153 | 0.0 | 2.0 | 0.00 | 0.61 | 0.61 | 98 | 1011.6 |
| 20260510015346 | 54 | 211 | 0.0 | 2.0 | 0.00 | 0.61 | 0.61 | 98 | 1011.7 |
| 20260510014855 | 54 | 115 | 1.0 | 2.0 | 0.00 | 0.61 | 0.61 | 98 | 1011.7 |
| 20260510014603 | 54 | 203 | 0.0 | 2.0 | 0.00 | 0.61 | 0.61 | 98 | 1011.5 |
| 20260510014543 | 54 | 0 | 0.0 | 2.0 | 0.00 | 0.61 | 0.61 | 98 | 1010.9 |
| 20260510014344 | 54 | 130 | 1.0 | 2.0 | 0.00 | 0.61 | 0.61 | 98 | 1011.4 |
| 20260510013855 | 54 | 194 | 0.0 | 1.0 | 0.00 | 0.61 | 0.61 | 98 | 1011.4 |
| 20260510013405 | 54 | 171 | 0.0 | 1.0 | 0.00 | 0.61 | 0.61 | 98 | 1011.4 |
| 20260510013111 | 54 | 171 | 0.0 | 1.0 | 0.00 | 0.61 | 0.61 | 98 | 1011.4 |
| 20260510013039 | 54 | 0 | 0.0 | 1.0 | 0.00 | 0.61 | 0.61 | 98 | 1010.9 |
| 20260510012852 | 54 | 171 | 0.0 | 1.0 | 0.00 | 0.61 | 0.61 | 98 | 1011.4 |
| 20260510012340 | 54 | 171 | 0.0 | 1.0 | 0.00 | 0.61 | 0.61 | 98 | 1011.2 |
| 20260510011850 | 54 | 171 | 0.0 | 1.0 | 0.00 | 0.61 | 0.61 | 98 | 1011.1 |
| 20260510011631 | 54 | 171 | 0.0 | 1.0 | 0.00 | 0.61 | 0.61 | 98 | 1011.1 |
| 20260510011550 | 54 | 0 | 0.0 | 1.0 | 0.00 | 0.61 | 0.61 | 97 | 1010.6 |
| 20260510011344 | 54 | 171 | 0.0 | 1.0 | 0.00 | 0.61 | 0.61 | 98 | 1011.1 |
| 20260510010851 | 54 | 195 | 0.0 | 2.0 | 0.00 | 0.61 | 0.61 | 98 | 1011.1 |
| 20260510010341 | 54 | 190 | 0.0 | 2.0 | 0.00 | 0.61 | 0.61 | 98 | 1011.0 |
| 20260510010038 | 53 | 190 | 0.0 | 2.0 | 0.00 | 0.61 | 0.61 | 97 | 1010.4 |
| 20260510010012 | 53 | 193 | 0.0 | 2.0 | 0.00 | 0.61 | 0.61 | 98 | 1011.0 |
| 20260510005908 | 54 | 129 | 0.0 | 2.0 | 0.00 | 0.61 | 0.61 | 98 | 1011.0 |
| 20260510005357 | 54 | 129 | 1.0 | 2.0 | 0.00 | 0.61 | 0.61 | 98 | 1011.0 |
| 20260510004846 | 54 | 134 | 0.0 | 1.0 | 0.00 | 0.61 | 0.61 | 98 | 1010.9 |
| 20260510004612 | 53 | 179 | 0.0 | 1.0 | 0.00 | 0.61 | 0.61 | 98 | 1010.9 |
| 20260510004540 | 53 | 0 | 0.0 | 0.0 | 0.00 | 0.61 | 0.61 | 97 | 1010.4 |
| 20260510004356 | 54 | 151 | 0.0 | 0.0 | 0.00 | 0.61 | 0.61 | 98 | 1010.9 |
| 20260510003906 | 54 | 151 | 0.0 | 0.0 | 0.00 | 0.61 | 0.61 | 98 | 1010.9 |
| 20260510003356 | 54 | 151 | 0.0 | 0.0 | 0.00 | 0.61 | 0.61 | 98 | 1011.0 |
| 20260510003120 | 53 | 151 | 0.0 | 0.0 | 0.00 | 0.61 | 0.61 | 98 | 1011.0 |
| 20260510003100 | 53 | 0 | 0.0 | 0.0 | 0.00 | 0.61 | 0.61 | 97 | 1010.4 |
| 20260510002843 | 54 | 151 | 0.0 | 0.0 | 0.00 | 0.61 | 0.61 | 98 | 1011.0 |
| 20260510002353 | 54 | 151 | 0.0 | 0.0 | 0.00 | 0.61 | 0.61 | 98 | 1010.9 |
| 20260510001839 | 54 | 151 | 0.0 | 0.0 | 0.00 | 0.61 | 0.61 | 98 | 1010.9 |
| 20260510001602 | 54 | 151 | 0.0 | 0.0 | 0.00 | 0.61 | 0.61 | 98 | 1010.8 |
| 20260510001542 | 54 | 0 | 0.0 | 0.0 | 0.00 | 0.61 | 0.61 | 97 | 1010.3 |
| 20260510001350 | 54 | 151 | 0.0 | 0.0 | 0.00 | 0.61 | 0.61 | 98 | 1010.8 |
| 20260510000839 | 55 | 151 | 0.0 | 0.0 | 0.00 | 0.61 | 0.61 | 98 | 1010.8 |
| 20260510000350 | 55 | 151 | 0.0 | 0.0 | 0.00 | 0.61 | 0.61 | 98 | 1010.7 |
| 20260510000111 | 54 | 151 | 0.0 | 0.0 | 0.00 | 0.61 | 0.61 | 98 | 1010.7 |
| 20260510000045 | 54 | 0 | 0.0 | 0.0 | 0.00 | 0.61 | 0.61 | 97 | 1010.1 |
| 20260509235836 | 55 | 150 | 0.0 | 0.0 | 0.00 | 0.61 | 0.61 | 98 | 1010.6 |
| 20260509235408 | 55 | 256 | 0.0 | 0.0 | 0.00 | 0.61 | 0.61 | 98 | 1010.6 |
| 20260509234856 | 55 | 256 | 0.0 | 0.0 | 0.00 | 0.61 | 0.61 | 98 | 1010.7 |
| 20260509234611 | 55 | 256 | 0.0 | 0.0 | 0.00 | 0.61 | 0.61 | 98 | 1010.7 |
| 20260509234556 | 55 | 0 | 0.0 | 0.0 | 0.00 | 0.61 | 0.61 | 97 | 1010.1 |
| 20260509234345 | 56 | 256 | 0.0 | 0.0 | 0.00 | 0.61 | 0.61 | 98 | 1010.7 |
| 20260509233836 | 56 | 256 | 0.0 | 0.0 | 0.00 | 0.61 | 0.61 | 98 | 1010.7 |
| 20260509233347 | 56 | 256 | 0.0 | 0.0 | 0.00 | 0.61 | 0.61 | 98 | 1010.7 |
| 20260509233110 | 55 | 256 | 0.0 | 0.0 | 0.00 | 0.61 | 0.61 | 98 | 1010.7 |
| 20260509233038 | 55 | 0 | 0.0 | 0.0 | 0.00 | 0.61 | 0.61 | 97 | 1010.1 |
| 20260509232853 | 56 | 256 | 0.0 | 0.0 | 0.01 | 0.61 | 0.61 | 98 | 1010.7 |
| 20260509232405 | 56 | 256 | 0.0 | 0.0 | 0.01 | 0.61 | 0.61 | 98 | 1010.8 |
| 20260509231854 | 56 | 256 | 0.0 | 0.0 | 0.03 | 0.61 | 0.61 | 98 | 1010.9 |
| 20260509231623 | 55 | 294 | 0.0 | 0.0 | 0.03 | 0.61 | 0.61 | 98 | 1010.8 |
| 20260509231547 | 55 | 0 | 0.0 | 0.0 | 0.03 | 0.61 | 0.61 | 97 | 1010.3 |
| 20260509231343 | 56 | 294 | 0.0 | 0.0 | 0.04 | 0.61 | 0.61 | 98 | 1010.9 |
| 20260509230853 | 56 | 294 | 0.0 | 0.0 | 0.05 | 0.61 | 0.61 | 98 | 1010.9 |
| 20260509230343 | 56 | 294 | 0.0 | 0.0 | 0.07 | 0.61 | 0.61 | 98 | 1011.0 |
| 20260509230108 | 55 | 294 | 0.0 | 0.0 | 0.07 | 0.61 | 0.61 | 98 | 1010.9 |
| 20260509230050 | 55 | 0 | 0.0 | 0.0 | 0.08 | 0.61 | 0.61 | 97 | 1010.4 |
| 20260509225850 | 56 | 294 | 0.0 | 0.0 | 0.09 | 0.61 | 0.61 | 98 | 1010.9 |
| 20260509225341 | 56 | 294 | 0.0 | 0.0 | 0.13 | 0.61 | 0.61 | 98 | 1011.0 |
| 20260509224851 | 56 | 294 | 0.0 | 0.0 | 0.15 | 0.61 | 0.61 | 98 | 1010.9 |
| 20260509224630 | 55 | 193 | 0.0 | 0.0 | 0.16 | 0.61 | 0.61 | 98 | 1010.9 |
| 20260509224543 | 55 | 0 | 0.0 | 0.0 | 0.17 | 0.61 | 0.61 | 97 | 1010.3 |
| 20260509224341 | 55 | 193 | 0.0 | 0.0 | 0.18 | 0.61 | 0.61 | 98 | 1010.8 |
| 20260509223851 | 55 | 193 | 0.0 | 0.0 | 0.19 | 0.61 | 0.61 | 98 | 1011.1 |
| 20260509223402 | 56 | 193 | 0.0 | 0.0 | 0.20 | 0.61 | 0.61 | 97 | 1011.1 |
| 20260509223041 | 55 | 0 | 0.0 | 2.0 | 0.21 | 0.61 | 0.61 | 97 | 1010.7 |
| 20260509222847 | 56 | 193 | 0.0 | 2.0 | 0.21 | 0.60 | 0.60 | 97 | 1011.2 |
| 20260509222357 | 56 | 193 | 0.0 | 2.0 | 0.21 | 0.60 | 0.60 | 97 | 1011.1 |
| 20260509221908 | 55 | 201 | 0.0 | 2.0 | 0.19 | 0.58 | 0.58 | 97 | 1011.1 |
| 20260509221618 | 55 | 201 | 0.0 | 2.0 | 0.19 | 0.57 | 0.57 | 97 | 1011.1 |
| 20260509221539 | 55 | 0 | 0.0 | 2.0 | 0.18 | 0.57 | 0.57 | 97 | 1010.5 |
| 20260509221337 | 55 | 286 | 1.0 | 1.0 | 0.19 | 0.57 | 0.57 | 97 | 1011.0 |
| 20260509220846 | 55 | 286 | 0.0 | 1.0 | 0.18 | 0.56 | 0.56 | 97 | 1011.3 |
| 20260509220357 | 55 | 286 | 0.0 | 2.0 | 0.16 | 0.54 | 0.54 | 97 | 1011.4 |
| 20260509220040 | 55 | 0 | 0.0 | 2.0 | 0.16 | 0.52 | 0.52 | 97 | 1010.9 |
| 20260509215844 | 55 | 286 | 0.0 | 2.0 | 0.15 | 0.52 | 0.52 | 97 | 1011.5 |
| 20260509215355 | 56 | 286 | 0.0 | 2.0 | 0.11 | 0.47 | 0.47 | 97 | 1011.6 |
| 20260509214906 | 56 | 286 | 0.0 | 2.0 | 0.10 | 0.46 | 0.46 | 97 | 1011.6 |
| 20260509214613 | 55 | 286 | 0.0 | 3.0 | 0.09 | 0.44 | 0.44 | 97 | 1011.4 |
| 20260509214536 | 55 | 0 | 0.0 | 3.0 | 0.09 | 0.44 | 0.44 | 97 | 1010.9 |
| 20260509214354 | 56 | 269 | 1.0 | 3.0 | 0.08 | 0.43 | 0.43 | 97 | 1011.4 |
| 20260509213844 | 56 | 280 | 1.0 | 3.0 | 0.08 | 0.42 | 0.42 | 97 | 1011.2 |
| 20260509213417 | 56 | 38 | 0.0 | 2.0 | 0.07 | 0.41 | 0.41 | 97 | 1011.3 |
| 20260509213121 | 55 | 38 | 1.0 | 2.0 | 0.06 | 0.40 | 0.40 | 97 | 1011.5 |
| 20260509213043 | 55 | 38 | 0.0 | 2.0 | 0.06 | 0.40 | 0.40 | 96 | 1011.2 |
| 20260509212843 | 56 | 288 | 1.0 | 2.0 | 0.05 | 0.39 | 0.39 | 97 | 1011.9 |
| 20260509212353 | 56 | 350 | 0.0 | 1.0 | 0.06 | 0.39 | 0.39 | 97 | 1011.6 |
| 20260509211843 | 56 | 350 | 0.0 | 3.0 | 0.06 | 0.39 | 0.39 | 97 | 1011.4 |
| 20260509211616 | 56 | 350 | 0.0 | 3.0 | 0.07 | 0.39 | 0.39 | 97 | 1011.4 |
| 20260509211540 | 56 | 0 | 0.0 | 3.0 | 0.06 | 0.38 | 0.38 | 96 | 1011.0 |
| 20260509211340 | 56 | 350 | 1.0 | 3.0 | 0.06 | 0.38 | 0.38 | 97 | 1011.7 |
| 20260509210848 | 56 | 19 | 0.0 | 2.0 | 0.06 | 0.38 | 0.38 | 97 | 1011.8 |
| 20260509210415 | 56 | 304 | 0.0 | 1.0 | 0.06 | 0.38 | 0.38 | 97 | 1011.7 |
| 20260509210121 | 56 | 228 | 0.0 | 0.0 | 0.05 | 0.37 | 0.37 | 97 | 1011.8 |
| 20260509210041 | 56 | 0 | 0.0 | 0.0 | 0.05 | 0.37 | 0.37 | 96 | 1011.2 |
| 20260509205846 | 56 | 228 | 0.0 | 0.0 | 0.05 | 0.37 | 0.37 | 97 | 1011.8 |
| 20260509205413 | 57 | 228 | 0.0 | 1.0 | 0.04 | 0.36 | 0.36 | 97 | 1011.7 |
| 20260509204902 | 57 | 228 | 0.0 | 1.0 | 0.04 | 0.36 | 0.36 | 97 | 1011.9 |
| 20260509204609 | 56 | 228 | 0.0 | 1.0 | 0.03 | 0.35 | 0.35 | 97 | 1012.0 |
| 20260509204538 | 56 | 0 | 0.0 | 1.0 | 0.03 | 0.35 | 0.35 | 96 | 1011.4 |
| 20260509204351 | 57 | 228 | 0.0 | 1.0 | 0.03 | 0.35 | 0.35 | 97 | 1012.0 |
| 20260509203845 | 57 | 228 | 0.0 | 1.0 | 0.02 | 0.34 | 0.34 | 97 | 1011.9 |
| 20260509203355 | 57 | 314 | 0.0 | 1.0 | 0.03 | 0.34 | 0.34 | 97 | 1011.8 |
| 20260509203038 | 56 | 0 | 0.0 | 1.0 | 0.03 | 0.34 | 0.34 | 96 | 1011.1 |
| 20260509203002 | 56 | 314 | 0.0 | 1.0 | 0.03 | 0.34 | 0.34 | 97 | 1011.7 |
| 20260509202901 | 57 | 314 | 0.0 | 1.0 | 0.03 | 0.34 | 0.34 | 97 | 1011.8 |
| 20260509202351 | 57 | 314 | 0.0 | 1.0 | 0.03 | 0.33 | 0.33 | 97 | 1012.0 |
| 20260509201621 | 56 | 314 | 0.0 | 2.0 | 0.03 | 0.32 | 0.32 | 96 | 1011.8 |
| 20260509201543 | 57 | 0 | 0.0 | 2.0 | 0.03 | 0.32 | 0.32 | 96 | 1011.3 |
| 20260509201347 | 57 | 314 | 0.0 | 2.0 | 0.03 | 0.32 | 0.32 | 96 | 1011.8 |
| 20260509200854 | 57 | 314 | 1.0 | 2.0 | 0.04 | 0.32 | 0.32 | 96 | 1011.9 |
| 20260509200343 | 57 | 336 | 0.0 | 1.0 | 0.04 | 0.32 | 0.32 | 96 | 1011.7 |
| 20260509200121 | 57 | 336 | 0.0 | 1.0 | 0.05 | 0.32 | 0.32 | 96 | 1011.5 |
| 20260509200041 | 57 | 0 | 0.0 | 2.0 | 0.05 | 0.32 | 0.32 | 96 | 1011.0 |
| 20260509195847 | 57 | 336 | 0.0 | 1.0 | 0.05 | 0.32 | 0.32 | 96 | 1011.6 |
| 20260509195337 | 57 | 290 | 0.0 | 2.0 | 0.06 | 0.32 | 0.32 | 96 | 1011.4 |
| 20260509194846 | 57 | 290 | 0.0 | 2.0 | 0.07 | 0.32 | 0.32 | 96 | 1011.2 |
| 20260509194610 | 57 | 290 | 1.0 | 2.0 | 0.07 | 0.32 | 0.32 | 96 | 1011.2 |
| 20260509194540 | 57 | 0 | 1.0 | 3.0 | 0.07 | 0.32 | 0.32 | 95 | 1010.6 |
| 20260509194354 | 57 | 292 | 1.0 | 3.0 | 0.08 | 0.32 | 0.32 | 96 | 1011.1 |
| 20260509193844 | 57 | 30 | 2.0 | 3.0 | 0.08 | 0.32 | 0.32 | 96 | 1011.0 |
| 20260509193356 | 57 | 281 | 0.0 | 1.0 | 0.11 | 0.31 | 0.31 | 96 | 1011.8 |
| 20260509193120 | 57 | 281 | 0.0 | 1.0 | 0.12 | 0.31 | 0.31 | 96 | 1011.7 |
| 20260509193040 | 57 | 0 | 0.0 | 1.0 | 0.13 | 0.31 | 0.31 | 95 | 1011.0 |
| 20260509192842 | 57 | 281 | 0.0 | 1.0 | 0.14 | 0.31 | 0.31 | 96 | 1011.6 |
| 20260509192352 | 57 | 281 | 0.0 | 2.0 | 0.16 | 0.30 | 0.30 | 95 | 1011.7 |
| 20260509191839 | 57 | 281 | 0.0 | 3.0 | 0.19 | 0.29 | 0.29 | 95 | 1011.8 |
| 20260509191609 | 57 | 281 | 0.0 | 3.0 | 0.19 | 0.28 | 0.28 | 95 | 1011.8 |
| 20260509191537 | 57 | 0 | 0.0 | 3.0 | 0.20 | 0.29 | 0.29 | 95 | 1011.1 |
| 20260509191412 | 58 | 281 | 1.0 | 3.0 | 0.20 | 0.29 | 0.29 | 95 | 1012.0 |
| 20260509190840 | 58 | 271 | 0.0 | 2.0 | 0.22 | 0.28 | 0.28 | 95 | 1012.0 |
| 20260509190411 | 58 | 271 | 0.0 | 2.0 | 0.24 | 0.27 | 0.27 | 95 | 1012.2 |
| 20260509190116 | 57 | 271 | 0.0 | 2.0 | 0.25 | 0.27 | 0.27 | 94 | 1012.2 |
| 20260509190043 | 57 | 271 | 0.0 | 2.0 | 0.25 | 0.27 | 0.27 | 94 | 1011.6 |
| 20260509185837 | 58 | 302 | 0.0 | 1.0 | 0.25 | 0.27 | 0.27 | 94 | 1012.1 |
| 20260509185347 | 58 | 302 | 0.0 | 1.0 | 0.24 | 0.26 | 0.26 | 94 | 1012.1 |
| 20260509184836 | 58 | 302 | 0.0 | 1.0 | 0.23 | 0.25 | 0.25 | 93 | 1012.2 |
| 20260509184604 | 57 | 302 | 0.0 | 3.0 | 0.23 | 0.25 | 0.25 | 93 | 1012.1 |
| 20260509184540 | 57 | 0 | 0.0 | 3.0 | 0.23 | 0.25 | 0.25 | 92 | 1011.5 |
| 20260509184346 | 58 | 302 | 0.0 | 3.0 | 0.22 | 0.24 | 0.24 | 93 | 1012.2 |
| 20260509183855 | 58 | 311 | 1.0 | 3.0 | 0.21 | 0.23 | 0.23 | 92 | 1012.3 |
| 20260509183345 | 58 | 236 | 0.0 | 3.0 | 0.18 | 0.20 | 0.20 | 91 | 1012.2 |
| 20260509183111 | 58 | 236 | 0.0 | 3.0 | 0.16 | 0.18 | 0.18 | 91 | 1012.3 |
| 20260509183054 | 58 | 236 | 1.0 | 3.0 | 0.16 | 0.18 | 0.18 | 90 | 1011.7 |
| 20260509182914 | 59 | 236 | 2.0 | 3.0 | 0.15 | 0.17 | 0.17 | 90 | 1012.2 |
| 20260509182343 | 59 | 226 | 1.0 | 3.0 | 0.12 | 0.14 | 0.14 | 88 | 1011.9 |
| 20260509181853 | 60 | 228 | 2.0 | 3.0 | 0.08 | 0.10 | 0.10 | 87 | 1011.9 |
| 20260509181622 | 60 | 167 | 0.0 | 4.0 | 0.07 | 0.09 | 0.09 | 87 | 1011.7 |
| 20260509181601 | 60 | 0 | 0.0 | 4.0 | 0.07 | 0.09 | 0.09 | 86 | 1011.0 |
| 20260509181344 | 61 | 167 | 1.0 | 4.0 | 0.07 | 0.09 | 0.09 | 86 | 1011.6 |
| 20260509180854 | 62 | 248 | 2.0 | 5.0 | 0.04 | 0.06 | 0.06 | 82 | 1011.5 |
| 20260509180404 | 63 | 167 | 2.0 | 5.0 | 0.00 | 0.02 | 0.02 | 76 | 1011.4 |
| 20260509180107 | 63 | 165 | 2.0 | 5.0 | 0.00 | 0.02 | 0.02 | 74 | 1011.3 |
| 20260509180036 | 63 | 206 | 1.0 | 8.0 | 0.00 | 0.02 | 0.02 | 74 | 1010.6 |
| 20260509175846 | 63 | 197 | 2.0 | 8.0 | 0.00 | 0.02 | 0.02 | 75 | 1011.1 |
| 20260509175354 | 64 | 155 | 2.0 | 8.0 | 0.00 | 0.02 | 0.02 | 73 | 1011.0 |
| 20260509174843 | 64 | 254 | 1.0 | 5.0 | 0.00 | 0.02 | 0.02 | 71 | 1010.8 |
| 20260509174614 | 64 | 233 | 1.0 | 5.0 | 0.00 | 0.02 | 0.02 | 71 | 1011.0 |
| 20260509174543 | 64 | 234 | 2.0 | 7.0 | 0.00 | 0.02 | 0.02 | 70 | 1010.4 |
| 20260509174416 | 65 | 227 | 3.0 | 6.0 | 0.00 | 0.02 | 0.02 | 71 | 1011.0 |
| 20260509173905 | 65 | 287 | 2.0 | 6.0 | 0.00 | 0.02 | 0.02 | 71 | 1010.9 |
| 20260509173354 | 65 | 232 | 2.0 | 4.0 | 0.00 | 0.02 | 0.02 | 72 | 1010.8 |
| 20260509173117 | 64 | 229 | 1.0 | 5.0 | 0.00 | 0.02 | 0.02 | 71 | 1010.8 |
| 20260509173039 | 64 | 233 | 1.0 | 5.0 | 0.00 | 0.02 | 0.02 | 70 | 1010.2 |
| 20260509172838 | 65 | 317 | 1.0 | 5.0 | 0.00 | 0.02 | 0.02 | 71 | 1010.9 |
| 20260509172349 | 65 | 232 | 3.0 | 5.0 | 0.00 | 0.02 | 0.02 | 70 | 1011.0 |
| 20260509171841 | 65 | 162 | 1.0 | 9.0 | 0.00 | 0.02 | 0.02 | 72 | 1010.9 |
| 20260509171610 | 64 | 215 | 1.0 | 9.0 | 0.00 | 0.02 | 0.02 | 72 | 1011.0 |
| 20260509171547 | 64 | 0 | 1.0 | 9.0 | 0.00 | 0.02 | 0.02 | 70 | 1010.3 |
| 20260509171351 | 65 | 267 | 2.0 | 9.0 | 0.00 | 0.02 | 0.02 | 70 | 1011.0 |
| 20260509170902 | 65 | 214 | 2.0 | 6.0 | 0.00 | 0.02 | 0.02 | 70 | 1011.2 |
| 20260509170352 | 65 | 159 | 3.0 | 6.0 | 0.00 | 0.02 | 0.02 | 70 | 1011.3 |
| 20260509170117 | 65 | 217 | 2.0 | 6.0 | 0.00 | 0.02 | 0.02 | 70 | 1011.3 |
| 20260509170038 | 65 | 208 | 2.0 | 6.0 | 0.00 | 0.02 | 0.02 | 70 | 1010.7 |
| 20260509165839 | 65 | 263 | 2.0 | 5.0 | 0.00 | 0.02 | 0.02 | 69 | 1011.3 |
| 20260509165410 | 66 | 229 | 3.0 | 7.0 | 0.00 | 0.02 | 0.02 | 68 | 1011.4 |
| 20260509164838 | 66 | 149 | 3.0 | 7.0 | 0.00 | 0.02 | 0.02 | 71 | 1011.4 |
| 20260509164607 | 65 | 221 | 1.0 | 4.0 | 0.00 | 0.02 | 0.02 | 71 | 1011.4 |
| 20260509164539 | 65 | 169 | 0.0 | 7.0 | 0.00 | 0.02 | 0.02 | 71 | 1010.8 |
| 20260509164350 | 65 | 186 | 1.0 | 7.0 | 0.00 | 0.02 | 0.02 | 69 | 1011.4 |
| 20260509163844 | 65 | 180 | 2.0 | 7.0 | 0.00 | 0.02 | 0.02 | 72 | 1011.6 |
| 20260509163355 | 64 | 240 | 2.0 | 6.0 | 0.00 | 0.02 | 0.02 | 74 | 1011.7 |
| 20260509163116 | 63 | 144 | 2.0 | 5.0 | 0.00 | 0.02 | 0.02 | 77 | 1011.7 |
| 20260509163040 | 63 | 53 | 1.0 | 5.0 | 0.00 | 0.02 | 0.02 | 76 | 1011.1 |
| 20260509162843 | 63 | 313 | 1.0 | 2.0 | 0.00 | 0.02 | 0.02 | 77 | 1011.9 |
| 20260509162412 | 63 | 238 | 1.0 | 4.0 | 0.00 | 0.02 | 0.02 | 77 | 1012.1 |
| 20260509161901 | 63 | 182 | 3.0 | 4.0 | 0.00 | 0.02 | 0.02 | 77 | 1012.1 |
| 20260509161619 | 62 | 234 | 0.0 | 2.0 | 0.00 | 0.02 | 0.02 | 82 | 1012.2 |
| 20260509161539 | 61 | 287 | 0.0 | 2.0 | 0.00 | 0.02 | 0.02 | 82 | 1011.7 |
| 20260509161346 | 62 | 205 | 1.0 | 2.0 | 0.00 | 0.02 | 0.02 | 82 | 1012.3 |
| 20260509160836 | 61 | 217 | 1.0 | 3.0 | 0.00 | 0.02 | 0.02 | 82 | 1012.5 |
| 20260509160347 | 61 | 215 | 1.0 | 3.0 | 0.00 | 0.02 | 0.02 | 83 | 1012.5 |
| 20260509160040 | 60 | 207 | 0.0 | 3.0 | 0.00 | 0.02 | 0.02 | 81 | 1012.0 |
| 20260509155913 | 60 | 155 | 1.0 | 2.0 | 0.00 | 0.02 | 0.02 | 83 | 1012.5 |
| 20260509155339 | 60 | 113 | 1.0 | 3.0 | 0.00 | 0.02 | 0.02 | 84 | 1012.5 |
| 20260509154909 | 59 | 238 | 1.0 | 3.0 | 0.00 | 0.02 | 0.02 | 84 | 1012.6 |
| 20260509154613 | 59 | 207 | 0.0 | 2.0 | 0.00 | 0.02 | 0.02 | 84 | 1012.6 |
| 20260509154538 | 59 | 0 | 0.0 | 3.0 | 0.00 | 0.02 | 0.02 | 84 | 1012.1 |
| 20260509154358 | 59 | 219 | 1.0 | 2.0 | 0.00 | 0.02 | 0.02 | 86 | 1012.7 |
| 20260509153845 | 59 | 219 | 1.0 | 2.0 | 0.00 | 0.02 | 0.02 | 85 | 1012.5 |
| 20260509153354 | 58 | 224 | 0.0 | 2.0 | 0.00 | 0.02 | 0.02 | 86 | 1012.4 |
| 20260509153118 | 58 | 212 | 1.0 | 2.0 | 0.00 | 0.02 | 0.02 | 86 | 1012.5 |
| 20260509153044 | 58 | 212 | 0.0 | 2.0 | 0.00 | 0.02 | 0.02 | 86 | 1012.0 |
| 20260509152841 | 58 | 182 | 1.0 | 2.0 | 0.00 | 0.02 | 0.02 | 87 | 1012.6 |
| 20260509152351 | 58 | 126 | 1.0 | 2.0 | 0.00 | 0.02 | 0.02 | 88 | 1012.7 |
| 20260509151900 | 58 | 156 | 1.0 | 2.0 | 0.00 | 0.02 | 0.02 | 87 | 1012.8 |
| 20260509151605 | 58 | 144 | 0.0 | 3.0 | 0.00 | 0.02 | 0.02 | 87 | 1012.8 |
| 20260509151544 | 58 | 0 | 0.0 | 3.0 | 0.00 | 0.02 | 0.02 | 86 | 1012.3 |
| 20260509151350 | 58 | 129 | 0.0 | 3.0 | 0.00 | 0.02 | 0.02 | 87 | 1012.8 |
| 20260509150839 | 58 | 96 | 1.0 | 4.0 | 0.00 | 0.02 | 0.02 | 87 | 1012.8 |
| 20260509150348 | 58 | 150 | 0.0 | 4.0 | 0.00 | 0.02 | 0.02 | 87 | 1012.6 |
| 20260509150112 | 57 | 88 | 1.0 | 4.0 | 0.00 | 0.02 | 0.02 | 87 | 1012.6 |
| 20260509150043 | 57 | 105 | 1.0 | 4.0 | 0.00 | 0.02 | 0.02 | 86 | 1012.2 |
| 20260509145854 | 58 | 222 | 1.0 | 3.0 | 0.00 | 0.02 | 0.02 | 87 | 1012.6 |
| 20260509145403 | 58 | 206 | 1.0 | 3.0 | 0.00 | 0.02 | 0.02 | 88 | 1012.8 |
| 20260509144851 | 58 | 234 | 0.0 | 3.0 | 0.00 | 0.02 | 0.02 | 88 | 1012.7 |
| 20260509144619 | 58 | 203 | 0.0 | 3.0 | 0.00 | 0.02 | 0.02 | 87 | 1012.7 |
| 20260509144542 | 58 | 213 | 0.0 | 4.0 | 0.00 | 0.02 | 0.02 | 86 | 1012.1 |
| 20260509144340 | 58 | 197 | 0.0 | 3.0 | 0.00 | 0.02 | 0.02 | 87 | 1012.6 |
| 20260509143848 | 58 | 157 | 1.0 | 5.0 | 0.00 | 0.02 | 0.02 | 88 | 1012.6 |
| 20260509143358 | 58 | 225 | 0.0 | 5.0 | 0.00 | 0.02 | 0.02 | 89 | 1012.7 |
| 20260509143121 | 58 | 193 | 2.0 | 5.0 | 0.00 | 0.02 | 0.02 | 89 | 1012.7 |
| 20260509143039 | 58 | 176 | 1.0 | 4.0 | 0.00 | 0.02 | 0.02 | 88 | 1012.1 |
| 20260509142840 | 58 | 219 | 1.0 | 4.0 | 0.00 | 0.02 | 0.02 | 90 | 1012.6 |
| 20260509142350 | 58 | 225 | 1.0 | 4.0 | 0.00 | 0.02 | 0.02 | 90 | 1012.6 |
| 20260509141840 | 58 | 94 | 1.0 | 3.0 | 0.00 | 0.02 | 0.02 | 91 | 1012.6 |
| 20260509141608 | 57 | 211 | 0.0 | 2.0 | 0.00 | 0.02 | 0.02 | 91 | 1012.7 |
| 20260509141539 | 57 | 155 | 0.0 | 2.0 | 0.00 | 0.02 | 0.02 | 91 | 1012.1 |
| 20260509141348 | 57 | 220 | 1.0 | 2.0 | 0.00 | 0.02 | 0.02 | 91 | 1012.7 |
| 20260509140837 | 57 | 153 | 1.0 | 2.0 | 0.00 | 0.02 | 0.02 | 92 | 1012.6 |
| 20260509140348 | 57 | 81 | 1.0 | 3.0 | 0.00 | 0.02 | 0.02 | 93 | 1012.7 |
| 20260509140121 | 56 | 149 | 0.0 | 2.0 | 0.00 | 0.02 | 0.02 | 93 | 1012.5 |
| 20260509140051 | 56 | 0 | 0.0 | 3.0 | 0.00 | 0.02 | 0.02 | 93 | 1011.9 |
| 20260509135855 | 56 | 146 | 0.0 | 2.0 | 0.00 | 0.02 | 0.02 | 94 | 1012.5 |
| 20260509135344 | 56 | 117 | 1.0 | 3.0 | 0.00 | 0.02 | 0.02 | 94 | 1012.6 |
| 20260509134854 | 55 | 176 | 1.0 | 3.0 | 0.00 | 0.02 | 0.02 | 95 | 1012.7 |
| 20260509134624 | 54 | 240 | 1.0 | 3.0 | 0.00 | 0.02 | 0.02 | 96 | 1012.6 |
| 20260509134540 | 54 | 227 | 0.0 | 3.0 | 0.00 | 0.02 | 0.02 | 95 | 1012.0 |
| 20260509134346 | 55 | 340 | 1.0 | 2.0 | 0.01 | 0.02 | 0.02 | 96 | 1012.5 |
| 20260509133836 | 55 | 113 | 1.0 | 2.0 | 0.01 | 0.02 | 0.02 | 97 | 1012.6 |
| 20260509133347 | 54 | 229 | 1.0 | 4.0 | 0.01 | 0.02 | 0.02 | 97 | 1012.8 |
| 20260509133112 | 54 | 169 | 0.0 | 4.0 | 0.01 | 0.02 | 0.02 | 97 | 1012.9 |
| 20260509133038 | 54 | 169 | 0.0 | 4.0 | 0.01 | 0.02 | 0.02 | 97 | 1012.2 |
| 20260509132854 | 54 | 145 | 1.0 | 4.0 | 0.01 | 0.02 | 0.02 | 97 | 1013.0 |
| 20260509132345 | 54 | 130 | 0.0 | 3.0 | 0.01 | 0.02 | 0.02 | 97 | 1013.2 |
| 20260509131838 | 53 | 178 | 1.0 | 3.0 | 0.01 | 0.02 | 0.02 | 97 | 1013.0 |
| 20260509131622 | 53 | 157 | 0.0 | 2.0 | 0.01 | 0.02 | 0.02 | 97 | 1012.9 |
| 20260509131539 | 53 | 0 | 0.0 | 2.0 | 0.01 | 0.02 | 0.02 | 97 | 1012.1 |
| 20260509131348 | 53 | 157 | 1.0 | 2.0 | 0.01 | 0.02 | 0.02 | 97 | 1012.7 |
| 20260509130857 | 53 | 187 | 1.0 | 2.0 | 0.01 | 0.02 | 0.02 | 97 | 1012.9 |
| 20260509130347 | 52 | 162 | 0.0 | 1.0 | 0.01 | 0.02 | 0.02 | 97 | 1013.1 |
| 20260509130107 | 52 | 162 | 0.0 | 4.0 | 0.01 | 0.02 | 0.02 | 97 | 1013.2 |
| 20260509130039 | 52 | 0 | 0.0 | 4.0 | 0.01 | 0.02 | 0.02 | 97 | 1012.6 |
| 20260509125854 | 52 | 162 | 0.0 | 4.0 | 0.01 | 0.02 | 0.02 | 97 | 1013.2 |
| 20260509125343 | 52 | 234 | 3.0 | 4.0 | 0.01 | 0.02 | 0.02 | 97 | 1013.5 |
| 20260509124853 | 52 | 193 | 1.0 | 2.0 | 0.01 | 0.02 | 0.02 | 97 | 1013.1 |
| 20260509124536 | 51 | 30 | 0.0 | 2.0 | 0.01 | 0.02 | 0.02 | 97 | 1012.3 |
| 20260509124502 | 51 | 30 | 0.0 | 2.0 | 0.01 | 0.02 | 0.02 | 97 | 1013.1 |
| 20260509124401 | 52 | 30 | 0.0 | 2.0 | 0.00 | 0.01 | 0.01 | 97 | 1013.1 |
| 20260509123851 | 52 | 59 | 0.0 | 2.0 | 0.00 | 0.01 | 0.01 | 97 | 1013.1 |
| 20260509123340 | 52 | 59 | 1.0 | 3.0 | 0.00 | 0.01 | 0.01 | 97 | 1013.0 |
| 20260509123121 | 51 | 179 | 0.0 | 3.0 | 0.00 | 0.01 | 0.01 | 97 | 1013.4 |
| 20260509123037 | 51 | 179 | 0.0 | 4.0 | 0.00 | 0.01 | 0.01 | 97 | 1012.8 |
| 20260509122846 | 52 | 167 | 1.0 | 3.0 | 0.00 | 0.01 | 0.01 | 97 | 1013.3 |
| 20260509122336 | 52 | 180 | 1.0 | 3.0 | 0.00 | 0.01 | 0.01 | 97 | 1013.3 |
| 20260509121847 | 52 | 162 | 0.0 | 1.0 | 0.00 | 0.01 | 0.01 | 97 | 1013.1 |
| 20260509121615 | 51 | 162 | 0.0 | 1.0 | 0.00 | 0.01 | 0.01 | 97 | 1013.1 |
| 20260509121539 | 51 | 0 | 0.0 | 1.0 | 0.00 | 0.01 | 0.01 | 97 | 1012.5 |
| 20260509121338 | 51 | 162 | 0.0 | 1.0 | 0.00 | 0.01 | 0.01 | 97 | 1013.3 |
| 20260509120849 | 51 | 161 | 0.0 | 1.0 | 0.00 | 0.01 | 0.01 | 97 | 1013.4 |
| 20260509120340 | 51 | 154 | 0.0 | 3.0 | 0.00 | 0.01 | 0.01 | 97 | 1013.4 |
| 20260509120105 | 51 | 154 | 0.0 | 3.0 | 0.00 | 0.01 | 0.01 | 97 | 1013.4 |
| 20260509120044 | 51 | 0 | 1.0 | 4.0 | 0.00 | 0.01 | 0.01 | 97 | 1012.9 |
| 20260509115846 | 51 | 154 | 1.0 | 4.0 | 0.00 | 0.01 | 0.01 | 97 | 1013.4 |
| 20260509115337 | 51 | 207 | 0.0 | 3.0 | 0.00 | 0.01 | 0.01 | 97 | 1013.5 |
| 20260509114845 | 51 | 200 | 2.0 | 3.0 | 0.00 | 0.01 | 0.01 | 97 | 1013.7 |
| 20260509114614 | 50 | 280 | 0.0 | 2.0 | 0.00 | 0.01 | 0.01 | 97 | 1013.7 |
| 20260509114538 | 50 | 0 | 0.0 | 2.0 | 0.00 | 0.01 | 0.01 | 97 | 1013.0 |
| 20260509114417 | 51 | 343 | 0.0 | 2.0 | 0.00 | 0.01 | 0.01 | 97 | 1013.7 |
| 20260509113846 | 51 | 240 | 0.0 | 2.0 | 0.00 | 0.01 | 0.01 | 97 | 1013.5 |
| 20260509113356 | 51 | 240 | 0.0 | 2.0 | 0.00 | 0.01 | 0.01 | 97 | 1013.7 |
| 20260509113121 | 50 | 240 | 0.0 | 2.0 | 0.00 | 0.01 | 0.01 | 97 | 1013.7 |
| 20260509113044 | 50 | 0 | 0.0 | 2.0 | 0.00 | 0.01 | 0.01 | 97 | 1013.2 |
| 20260509112843 | 50 | 304 | 1.0 | 2.0 | 0.00 | 0.01 | 0.01 | 97 | 1013.6 |
| 20260509112353 | 50 | 355 | 0.0 | 3.0 | 0.00 | 0.01 | 0.01 | 97 | 1013.4 |
| 20260509111844 | 50 | 355 | 1.0 | 3.0 | 0.00 | 0.01 | 0.01 | 97 | 1013.5 |
| 20260509111612 | 50 | 247 | 1.0 | 3.0 | 0.00 | 0.01 | 0.01 | 97 | 1013.8 |
| 20260509111548 | 50 | 247 | 1.0 | 3.0 | 0.00 | 0.01 | 0.01 | 96 | 1013.3 |
| 20260509111415 | 50 | 273 | 1.0 | 2.0 | 0.00 | 0.01 | 0.01 | 97 | 1013.7 |
| 20260509110843 | 50 | 299 | 0.0 | 1.0 | 0.00 | 0.01 | 0.01 | 97 | 1013.3 |
| 20260509110354 | 50 | 298 | 0.0 | 1.0 | 0.00 | 0.01 | 0.01 | 97 | 1013.2 |
| 20260509110119 | 49 | 298 | 0.0 | 1.0 | 0.00 | 0.01 | 0.01 | 97 | 1013.3 |
| 20260509110042 | 49 | 0 | 0.0 | 1.0 | 0.00 | 0.01 | 0.01 | 96 | 1012.8 |
| 20260509105841 | 50 | 298 | 0.0 | 0.0 | 0.00 | 0.01 | 0.01 | 97 | 1013.3 |
| 20260509105352 | 50 | 298 | 0.0 | 0.0 | 0.00 | 0.01 | 0.01 | 97 | 1013.3 |
| 20260509104842 | 50 | 298 | 0.0 | 0.0 | 0.00 | 0.01 | 0.01 | 97 | 1013.3 |
| 20260509104613 | 49 | 298 | 0.0 | 1.0 | 0.00 | 0.01 | 0.01 | 97 | 1013.3 |
| 20260509104543 | 49 | 0 | 0.0 | 1.0 | 0.00 | 0.01 | 0.01 | 96 | 1012.7 |
| 20260509104354 | 49 | 298 | 0.0 | 1.0 | 0.00 | 0.01 | 0.01 | 97 | 1013.3 |
| 20260509103844 | 49 | 298 | 0.0 | 1.0 | 0.00 | 0.01 | 0.01 | 97 | 1013.2 |
| 20260509103356 | 49 | 298 | 0.0 | 0.0 | 0.00 | 0.01 | 0.01 | 97 | 1013.0 |
| 20260509103119 | 49 | 298 | 0.0 | 0.0 | 0.00 | 0.01 | 0.01 | 97 | 1013.0 |
| 20260509103039 | 49 | 0 | 0.0 | 0.0 | 0.00 | 0.01 | 0.01 | 96 | 1012.3 |
| 20260509102845 | 49 | 298 | 0.0 | 0.0 | 0.00 | 0.01 | 0.01 | 97 | 1013.0 |
| 20260509102355 | 49 | 298 | 0.0 | 1.0 | 0.00 | 0.01 | 0.01 | 97 | 1013.0 |
| 20260509101846 | 49 | 298 | 0.0 | 1.0 | 0.00 | 0.01 | 0.01 | 97 | 1012.9 |
| 20260509101611 | 49 | 298 | 0.0 | 1.0 | 0.00 | 0.01 | 0.01 | 97 | 1012.9 |
| 20260509101550 | 49 | 0 | 0.0 | 1.0 | 0.00 | 0.01 | 0.01 | 96 | 1012.2 |
| 20260509101337 | 49 | 298 | 0.0 | 1.0 | 0.00 | 0.01 | 0.01 | 97 | 1012.9 |
| 20260509100847 | 49 | 298 | 0.0 | 2.0 | 0.00 | 0.01 | 0.01 | 97 | 1012.9 |
| 20260509100358 | 49 | 298 | 1.0 | 2.0 | 0.00 | 0.01 | 0.01 | 97 | 1012.8 |
| 20260509100120 | 49 | 262 | 0.0 | 1.0 | 0.00 | 0.01 | 0.01 | 97 | 1012.9 |
| 20260509100038 | 49 | 0 | 0.0 | 1.0 | 0.00 | 0.01 | 0.01 | 96 | 1012.1 |
| 20260509095846 | 49 | 262 | 0.0 | 1.0 | 0.00 | 0.01 | 0.01 | 97 | 1012.9 |
| 20260509095336 | 49 | 262 | 0.0 | 1.0 | 0.00 | 0.01 | 0.01 | 97 | 1012.9 |
| 20260509094846 | 49 | 262 | 0.0 | 1.0 | 0.00 | 0.01 | 0.01 | 97 | 1013.1 |
| 20260509094614 | 49 | 262 | 0.0 | 1.0 | 0.00 | 0.01 | 0.01 | 97 | 1013.2 |
| 20260509094544 | 49 | 0 | 0.0 | 2.0 | 0.00 | 0.01 | 0.01 | 96 | 1012.4 |
| 20260509094417 | 49 | 262 | 1.0 | 1.0 | 0.00 | 0.01 | 0.01 | 96 | 1013.1 |
| 20260509093846 | 49 | 262 | 0.0 | 2.0 | 0.00 | 0.01 | 0.01 | 96 | 1013.2 |
| 20260509093356 | 49 | 262 | 0.0 | 2.0 | 0.00 | 0.01 | 0.01 | 96 | 1013.0 |
| 20260509093121 | 49 | 262 | 0.0 | 2.0 | 0.00 | 0.01 | 0.01 | 96 | 1013.0 |
| 20260509093053 | 49 | 0 | 0.0 | 2.0 | 0.00 | 0.01 | 0.01 | 96 | 1012.2 |
| 20260509092843 | 49 | 262 | 0.0 | 2.0 | 0.00 | 0.01 | 0.01 | 96 | 1013.0 |
| 20260509092353 | 49 | 262 | 0.0 | 2.0 | 0.00 | 0.01 | 0.01 | 96 | 1013.0 |
| 20260509091905 | 49 | 262 | 0.0 | 1.0 | 0.00 | 0.01 | 0.01 | 96 | 1013.1 |
| 20260509091613 | 49 | 262 | 0.0 | 1.0 | 0.00 | 0.01 | 0.01 | 96 | 1013.2 |
| 20260509091540 | 49 | 262 | 0.0 | 1.0 | 0.00 | 0.01 | 0.01 | 96 | 1012.4 |
| 20260509091355 | 49 | 262 | 0.0 | 1.0 | 0.00 | 0.01 | 0.01 | 96 | 1013.1 |
| 20260509090845 | 49 | 262 | 0.0 | 1.0 | 0.00 | 0.01 | 0.01 | 96 | 1013.0 |
| 20260509090356 | 49 | 262 | 0.0 | 1.0 | 0.00 | 0.01 | 0.01 | 96 | 1013.0 |
| 20260509090120 | 49 | 262 | 0.0 | 0.0 | 0.00 | 0.01 | 0.01 | 96 | 1013.1 |
| 20260509090039 | 49 | 0 | 0.0 | 0.0 | 0.00 | 0.01 | 0.01 | 96 | 1012.3 |
| 20260509085842 | 49 | 262 | 0.0 | 0.0 | 0.00 | 0.02 | 0.01 | 96 | 1013.0 |
| 20260509085352 | 49 | 262 | 0.0 | 1.0 | 0.00 | 0.02 | 0.01 | 96 | 1013.1 |
| 20260509084843 | 49 | 262 | 0.0 | 1.0 | 0.00 | 0.02 | 0.01 | 96 | 1013.2 |
| 20260509084611 | 49 | 262 | 0.0 | 1.0 | 0.00 | 0.02 | 0.01 | 96 | 1013.2 |
| 20260509084549 | 49 | 0 | 0.0 | 1.0 | 0.00 | 0.02 | 0.01 | 96 | 1012.4 |
| 20260509084414 | 49 | 262 | 0.0 | 1.0 | 0.00 | 0.02 | 0.01 | 96 | 1013.1 |
| 20260509083905 | 49 | 262 | 0.0 | 1.0 | 0.00 | 0.02 | 0.01 | 96 | 1013.1 |
| 20260509083416 | 49 | 262 | 0.0 | 0.0 | 0.00 | 0.02 | 0.01 | 96 | 1013.1 |
| 20260509083119 | 49 | 262 | 0.0 | 1.0 | 0.00 | 0.02 | 0.01 | 96 | 1013.2 |
| 20260509083042 | 49 | 0 | 0.0 | 1.0 | 0.00 | 0.02 | 0.01 | 96 | 1012.4 |
| 20260509082842 | 49 | 262 | 0.0 | 1.0 | 0.00 | 0.02 | 0.01 | 96 | 1013.1 |
| 20260509082351 | 49 | 262 | 0.0 | 1.0 | 0.00 | 0.02 | 0.01 | 96 | 1013.1 |